Regional Weather Roundup
Issued by NWS

Home | Current Version | Previous Version | Text Only | Print | Product List | Glossary Off
Versions: 1 2 3 4 5 6 7 8 9 10 11 12 13 14 15 16 17 18 19 20 21 22 23 24 25 26 27 28 29 30 31 32 33 34 35 36 37 38 39 40 41 42 43 44 45 46 47 48 49 50

000
ASUS43 KLMK 011310
RWRKY
KENTUCKY REGIONAL WEATHER ROUNDUP
NATIONAL WEATHER SERVICE LOUISVILLE KY
900 AM EDT SUN MAY 01 2016

NOTE "FAIR" INDICATES FEW OR NO CLOUDS BELOW 12,000 FEET
WITH NO SIGNIFICANT WEATHER AND/OR OBSTRUCTIONS TO VISIBILITY.

KYZ001>023-026-027-061>063-070>075-011400-
WESTERN AND SOUTH CENTRAL KENTUCKY

CITY           SKY/WX    TMP DP  RH WIND       PRES   REMARKS
PADUCAH        CLOUDY    65  61  87 SE3       29.90R
HENDERSON      MOSUNNY   63  55  77 S5        29.89R
OWENSBORO      SUNNY     65  60  83 S7        29.91S
HOPKINSVILLE   CLOUDY    65  65 100 SW2       29.93S FOG
BOWLING GREEN  CLOUDY    68  65  90 CALM      29.95R
GLASGOW        CLOUDY    65  65 100 NW3       29.96R
$$

KYZ024-025-028>034-038-045-046-053-011400-
NORTH CENTRAL KENTUCKY

CITY           SKY/WX    TMP DP  RH WIND       PRES   REMARKS
LOUISVILLE/SDF PTSUNNY   67  64  90 S10       29.91S
LOUISVILLE/LOU CLOUDY    67  64  90 S8        29.92S
FORT KNOX      CLOUDY    66  66 100 S8        29.91S
$$

KYZ035>037-039>044-047>052-055>060-089>105-011400-
NORTHEAST KENTUCKY

CITY           SKY/WX    TMP DP  RH WIND       PRES   REMARKS
LEXINGTON      CLOUDY    66  63  90 SW7       29.96R
COVINGTON      PTSUNNY   65  62  90 S7        29.93R
FRANKFORT      CLOUDY    66  62  87 S5        29.92F
$$

KYZ054-064>069-076>088-106>120-011400-
SOUTHEAST KENTUCKY

CITY           SKY/WX    TMP DP  RH WIND       PRES   REMARKS
JACKSON        LGT RAIN  62  60  93 VRB3      30.00R FOG
LONDON         CLOUDY    63  61  93 SE5       29.99S
SOMERSET       PTSUNNY   63  63 100 S3        30.00R
MIDDLESBORO    CLOUDY    64  64  99 CALM      30.02S
MONTICELLO     CLOUDY    68  65  90 W14       30.00R
$$





USA.gov is the U.S. government's official web portal to all federal, state and local government web resources and services.